This is the latest recevied weather packets stored in our database for station/object KD4MBW. If no packets are shown the sender has not sent any weather packets the latest 10 day(s).
| Time | Temp. | Humidity | Pressure | Rain* | Wind** | Luminosity | Snow |
|---|---|---|---|---|---|---|---|
| 1778261925 | 23.33° C | 90% | 1015 hPa | 0 mm | - | 279 W/m² | - |
| 1778261622 | 23.33° C | 90% | 1014.9 hPa | 0 mm | - | 322 W/m² | - |
| 1778261318 | 23.33° C | 90% | 1015.1 hPa | 0 mm | - | 347 W/m² | - |
| 1778261015 | 22.78° C | 91% | 1015.1 hPa | 0 mm | - | 361 W/m² | - |
| 1778260711 | 23.33° C | 91% | 1015.1 hPa | 0 mm | - | 281 W/m² | - |
| 1778260408 | 22.78° C | 91% | 1015.1 hPa | 0 mm | - | 331 W/m² | - |
| 1778260105 | 22.78° C | 91% | 1015.4 hPa | 0 mm | - | 230 W/m² | - |
| 1778259803 | 22.78° C | 91% | 1015.4 hPa | 0 mm | - | 247 W/m² | - |
| 1778259499 | 22.78° C | 91% | 1015.2 hPa | 0 mm | - | 245 W/m² | - |
| 1778259197 | 22.78° C | 90% | 1015.3 hPa | 0 mm | - | 428 W/m² | - |
| 1778258892 | 22.78° C | 91% | 1015.5 hPa | 0 mm | - | 336 W/m² | - |
| 1778258590 | 22.78° C | 92% | 1015.7 hPa | 0 mm | - | 293 W/m² | - |
| 1778258288 | 22.78° C | 91% | 1015.5 hPa | 0 mm | - | 169 W/m² | - |
| 1778257985 | 22.78° C | 91% | 1015.7 hPa | 0 mm | - | 235 W/m² | - |
| 1778257681 | 22.22° C | 91% | 1015.8 hPa | 0 mm | - | 199 W/m² | - |
| 1778257377 | 22.22° C | 91% | 1016 hPa | 0 mm | - | 144 W/m² | - |
| 1778257074 | 22.22° C | 91% | 1016 hPa | 0 mm | - | 110 W/m² | - |
| 1778256771 | 22.22° C | 91% | 1016.3 hPa | 0 mm | - | 133 W/m² | - |
| 1778256469 | 22.22° C | 91% | 1016.1 hPa | 0 mm | - | 169 W/m² | - |
| 1778256168 | 22.22° C | 91% | 1016.1 hPa | 0 mm | - | 141 W/m² | - |
| 1778255864 | 22.22° C | 90% | 1016.1 hPa | 0 mm | - | 198 W/m² | - |
| 1778255561 | 22.22° C | 91% | 1016.2 hPa | 0 mm | - | 175 W/m² | - |
| 1778255257 | 22.22° C | 91% | 1015.9 hPa | 0 mm | - | 184 W/m² | - |
| 1778254956 | 22.22° C | 91% | 1016 hPa | 0 mm | - | 208 W/m² | - |
| 1778254652 | 22.22° C | 92% | 1016 hPa | 0 mm | - | 140 W/m² | - |
* Rain latest hour (hover to see other rain measurements)
** Current wind speed in m/s (hover to see current wind gust speed)